Location: Newark
(52.9300°N, 3.3400°W)
Time: 13:56:53
(UTC+00:00)

Envisat - Visible Passes

Search period start: 28 February 2021 00:00
Search period end: 10 March 2021 00:00
Orbit: 764 x 766 km, 98.1° (Epoch: 27 February)

Date Brightness Start Highest point End Pass type
(mag) Time Alt. Az. Time Alt. Az. Time Alt. Az.
28 Feb 5.1 05:10:44 10° NNE 05:15:10 29° E 05:19:35 10° SSE visible
01 Mar 6.0 04:34:53 10° NE 04:37:54 16° E 04:40:55 10° ESE visible
01 Mar 3.1 06:12:34 10° NNE 06:17:42 88° ESE 06:22:47 10° SSW visible
02 Mar 4.2 05:35:51 10° NNE 05:40:46 46° E 05:45:38 10° S visible
02 Mar 6.4 18:38:54 10° WSW 18:41:21 13° W 18:43:49 10° NW visible
03 Mar 5.4 04:59:29 10° NE 05:03:38 24° E 05:07:45 10° SE visible
04 Mar 6.1 04:24:06 10° ENE 04:26:18 13° E 04:28:30 10° ESE visible
04 Mar 3.3 06:01:09 10° NNE 06:06:15 73° ESE 06:11:20 10° S visible
05 Mar 4.6 05:24:30 10° NNE 05:29:16 38° E 05:33:59 10° SSE visible
05 Mar 6.2 18:26:34 10° SW 18:29:45 16° W 18:32:57 10° NW visible
06 Mar 5.7 04:48:20 10° NE 04:52:05 20° E 04:55:48 10° SE visible
07 Mar 6.5 04:14:19 10° ENE 04:14:41 10° E 04:15:01 10° E visible
07 Mar 3.7 05:49:44 10° NNE 05:54:48 60° E 05:59:49 10° S visible
08 Mar 5.0 05:13:12 10° NNE 05:17:45 31° E 05:22:15 10° SSE visible
09 Mar 5.9 04:37:16 10° NE 04:40:30 17° E 04:43:43 10° SE visible
